Weather History for KDRM - October, 2012

Change the Weather History Date:

Friday, October 19, 2012

  Actual Average (KCIU) Record (KCIU)
Temperature  
Mean Temperature 50 °F -  
Max Temperature 54 °F 51 °F 65 °F (1979)
Min Temperature 45 °F 33 °F 17 °F (1989)
Degree Days  
Heating Degree Days 16    
Moisture  
Dew Point 47 °F    
Average Humidity 89    
Maximum Humidity 99    
Minimum Humidity 69    
Precipitation  
Precipitation 0.00 in - - ()
Sea Level Pressure  
Sea Level Pressure 29.64 in    
Wind  
Wind Speed 6 mph (ESE)    
Max Wind Speed 12 mph    
Max Gust Speed 20 mph    
Visibility 10 miles    
Events Rain    
Averages and records for this station are not official NWS values.
T = Trace of Precipitation, MM = Missing Value Source: NWS Daily Summary

Daily Weather History Graph

Daily Weather History Graph

Search for Another Location

Airport or City:

Trip Planner

Search our weather history database for the weather conditions in past years. The results will help you decide how hot, cold, wet, or windy it might be!

Date:

Astronomy

Oct. 19, 2012 Rise Set
Actual Time 7:57 AM EDT 6:40 PM EDT
Civil Twilight 7:27 AM EDT 7:11 PM EDT
Nautical Twilight 6:52 AM EDT 7:45 PM EDT
Astronomical Twilight 6:18 AM EDT 8:20 PM EDT
Moon 12:51 PM EDT (10/19) 10:07 PM EDT (10/19)
Length of Visible Light 11h 43m
Length of Day
10h 43m
Waxing Crescent, 23% of the Moon is Illuminated
Oct 19
Waxing Crescent
Oct 21
First Quarter
Oct 29
Full
Nov 6
Last Quarter
Nov 13
New

Hourly Weather History & Observations

Time (EDT) Temp. Windchill Dew Point Humidity Pressure Visibility Wind Dir Wind Speed Gust Speed Precip Events Conditions
12:16 AM 45.7 °F 44.4 °F 44.4 °F 95% 29.65 in 10.0 mi East 3.5 mph - N/A   Scattered Clouds
12:35 AM 46.4 °F 45.2 °F 45.1 °F 95% 29.64 in 10.0 mi ESE 3.5 mph - N/A   Mostly Cloudy
12:55 AM 46.9 °F - 45.5 °F 95% 29.63 in 10.0 mi ESE 4.6 mph - N/A   Mostly Cloudy
1:16 AM 46.8 °F - 45.5 °F 95% 29.62 in 10.0 mi ESE 4.6 mph - N/A   Scattered Clouds
1:35 AM 47.7 °F - 46.8 °F 97% 29.62 in 10.0 mi ESE 3.5 mph - N/A   Scattered Clouds
1:55 AM 48.2 °F - 47.5 °F 97% 29.62 in 10.0 mi SE 4.6 mph - N/A   Mostly Cloudy
2:16 AM 50.2 °F - 49.1 °F 96% 29.62 in 10.0 mi SE 9.2 mph - N/A   Overcast
2:35 AM 50.2 °F - 48.9 °F 95% 29.63 in 10.0 mi SE 6.9 mph - N/A   Overcast
2:56 AM 50.2 °F - 48.7 °F 95% 29.62 in 10.0 mi SSE 9.2 mph - N/A   Overcast
3:16 AM 50.2 °F - 48.4 °F 94% 29.63 in 10.0 mi SE 5.8 mph - N/A   Overcast
3:35 AM 50.0 °F - 48.2 °F 94% 29.63 in 10.0 mi SSE 6.9 mph - N/A   Mostly Cloudy
3:56 AM 49.6 °F - 48.2 °F 95% 29.63 in 10.0 mi SE 5.8 mph - N/A   Scattered Clouds
4:15 AM 49.6 °F - 48.6 °F 96% 29.63 in 10.0 mi SE 9.2 mph - N/A   Scattered Clouds
4:35 AM 50.2 °F - 49.3 °F 97% 29.63 in 10.0 mi SSE 8.1 mph - N/A   Scattered Clouds
4:55 AM 50.0 °F - 49.1 °F 97% 29.63 in 10.0 mi SE 5.8 mph - N/A   Clear
5:15 AM 49.6 °F - 47.7 °F 93% 29.63 in 10.0 mi SSE 5.8 mph - N/A   Clear
5:36 AM 49.3 °F - 47.3 °F 93% 29.63 in 10.0 mi SSE 3.5 mph - N/A   Mostly Cloudy
5:55 AM 49.1 °F - 46.6 °F 91% 29.64 in 10.0 mi SE 5.8 mph - N/A   Scattered Clouds
6:16 AM 49.5 °F - 46.4 °F 89% 29.64 in 10.0 mi SE 4.6 mph - N/A   Mostly Cloudy
6:35 AM 49.3 °F - 45.9 °F 88% 29.64 in 10.0 mi SE 5.8 mph - N/A   Overcast
6:55 AM 49.1 °F - 45.5 °F 87% 29.64 in 10.0 mi ESE 5.8 mph - N/A   Overcast
7:16 AM 48.6 °F - 45.0 °F 87% 29.64 in 10.0 mi Calm Calm - N/A   Overcast
7:35 AM 48.6 °F - 45.0 °F 87% 29.65 in 10.0 mi ESE 4.6 mph - N/A   Mostly Cloudy
7:55 AM 48.7 °F - 45.9 °F 90% 29.65 in 10.0 mi ESE 4.6 mph - N/A   Mostly Cloudy
8:15 AM 49.1 °F - 47.5 °F 94% 29.65 in 10.0 mi ESE 5.8 mph - N/A   Overcast
8:35 AM 50.0 °F - 48.4 °F 94% 29.65 in 10.0 mi ESE 8.1 mph - N/A   Overcast
8:55 AM 50.5 °F - 48.2 °F 92% 29.66 in 10.0 mi SE 6.9 mph - N/A   Overcast
9:15 AM 50.9 °F - 48.2 °F 90% 29.67 in 10.0 mi SE 8.1 mph - N/A   Overcast
9:36 AM 51.1 °F - 48.2 °F 90% 29.67 in 10.0 mi SE 9.2 mph 18.4 mph N/A   Overcast
9:55 AM 51.3 °F - 48.4 °F 90% 29.67 in 10.0 mi ESE 10.4 mph 17.3 mph N/A   Overcast
10:15 AM 51.6 °F - 48.7 °F 90% 29.67 in 10.0 mi ESE 6.9 mph - N/A   Overcast
10:36 AM 51.8 °F - 49.1 °F 90% 29.67 in 10.0 mi ESE 10.4 mph - N/A   Overcast
10:55 AM 51.8 °F - 49.1 °F 90% 29.67 in 10.0 mi ESE 9.2 mph 18.4 mph N/A   Overcast
11:15 AM 52.3 °F - 49.3 °F 89% 29.67 in 10.0 mi ESE 10.4 mph 16.1 mph N/A   Overcast
11:36 AM 53.1 °F - 48.9 °F 86% 29.66 in 10.0 mi East 11.5 mph 17.3 mph N/A   Mostly Cloudy
11:55 AM 53.1 °F - 48.7 °F 85% 29.66 in 10.0 mi ESE 9.2 mph 17.3 mph N/A   Mostly Cloudy
12:16 PM 53.6 °F - 48.9 °F 84% 29.65 in 10.0 mi ESE 6.9 mph 16.1 mph N/A   Overcast
12:36 PM 53.6 °F - 47.8 °F 81% 29.66 in 10.0 mi ESE 10.4 mph 19.6 mph N/A   Mostly Cloudy
12:55 PM 53.6 °F - 48.6 °F 83% 29.65 in 10.0 mi ESE 6.9 mph - N/A   Overcast
1:16 PM 53.6 °F - 48.0 °F 81% 29.65 in 10.0 mi East 6.9 mph - N/A   Overcast
1:35 PM 53.2 °F - 47.5 °F 81% 29.65 in 10.0 mi East 4.6 mph - N/A   Overcast
1:55 PM 52.2 °F - 48.4 °F 87% 29.64 in 10.0 mi ENE 6.9 mph - N/A Rain Light Rain
2:16 PM 52.3 °F - 48.6 °F 87% 29.64 in 10.0 mi East 8.1 mph - N/A   Overcast
2:35 PM 53.1 °F - 48.6 °F 85% 29.64 in 10.0 mi East 6.9 mph - N/A   Overcast
2:55 PM 53.4 °F - 48.4 °F 83% 29.62 in 10.0 mi East 8.1 mph - N/A   Overcast
3:16 PM 53.8 °F - 48.2 °F 81% 29.62 in 10.0 mi East 9.2 mph - N/A   Overcast
3:35 PM 54.0 °F - 48.2 °F 81% 29.62 in 10.0 mi ESE 5.8 mph - N/A   Overcast
3:55 PM 54.0 °F - 48.6 °F 82% 29.62 in 10.0 mi East 5.8 mph - N/A   Overcast
4:16 PM 53.2 °F - 46.0 °F 77% 29.62 in 10.0 mi SE 8.1 mph - N/A   Overcast
4:35 PM 54.1 °F - 45.7 °F 73% 29.62 in 10.0 mi East 6.9 mph 17.3 mph N/A   Overcast
4:56 PM 53.2 °F - 48.2 °F 83% 29.62 in 10.0 mi East 4.6 mph - N/A   Overcast
5:16 PM 52.7 °F - 48.2 °F 85% 29.62 in 10.0 mi Calm Calm - N/A Rain Light Rain
5:35 PM 52.3 °F - 48.0 °F 85% 29.62 in 10.0 mi ENE 4.6 mph - N/A Rain Light Rain
5:56 PM 51.8 °F - 47.3 °F 85% 29.61 in 10.0 mi ENE 8.1 mph - N/A   Overcast
6:15 PM 51.8 °F - 46.4 °F 82% 29.61 in 10.0 mi ENE 6.9 mph - N/A   Overcast
6:36 PM 51.4 °F - 46.6 °F 83% 29.61 in 10.0 mi ENE 6.9 mph - N/A   Overcast
6:56 PM 51.8 °F - 44.8 °F 77% 29.61 in 10.0 mi ENE 5.8 mph - N/A   Overcast
7:15 PM 52.0 °F - 43.9 °F 74% 29.61 in 10.0 mi East 9.2 mph - N/A   Overcast
7:36 PM 52.3 °F - 43.2 °F 71% 29.61 in 10.0 mi East 11.5 mph 17.3 mph N/A   Overcast
7:55 PM 52.7 °F - 42.6 °F 69% 29.62 in 10.0 mi East 9.2 mph 16.1 mph N/A   Overcast
8:15 PM 51.1 °F - 42.4 °F 72% 29.65 in 10.0 mi South 9.2 mph - N/A   Overcast
8:36 PM 47.3 °F - 43.9 °F 88% 29.65 in 10.0 mi SSE 8.1 mph - N/A Rain Light Rain
8:55 PM 46.8 °F - 44.4 °F 92% 29.65 in 10.0 mi SSE 5.8 mph - N/A Rain Light Rain
9:15 PM 46.4 °F 44.3 °F 45.0 °F 95% 29.65 in 10.0 mi SSE 4.6 mph - N/A   Light Drizzle
9:35 PM 46.4 °F 44.3 °F 45.1 °F 95% 29.65 in 10.0 mi SSE 4.6 mph - N/A Rain Rain
9:55 PM 46.2 °F 45.0 °F 45.3 °F 97% 29.65 in 10.0 mi SE 3.5 mph - N/A Rain Light Rain
10:15 PM 46.2 °F - 45.3 °F 97% 29.65 in 10.0 mi Calm Calm - N/A Rain Rain
10:35 PM 46.0 °F - 45.1 °F 97% 29.64 in 7.0 mi Calm Calm - N/A Rain Rain
10:56 PM 45.9 °F 44.6 °F 45.1 °F 97% 29.64 in 10.0 mi ESE 3.5 mph - N/A Rain Light Rain
11:15 PM 45.9 °F 44.6 °F 45.5 °F 99% 29.64 in 7.0 mi SE 3.5 mph - N/A Rain Rain
11:35 PM 46.0 °F 44.8 °F 45.5 °F 98% 29.63 in 5.0 mi East 3.5 mph - N/A Rain Rain
11:56 PM 45.9 °F 44.6 °F 45.5 °F 99% 29.63 in 7.0 mi ENE 3.5 mph - N/A Rain Light Rain